STARLINK-2244 (48588 NORAD) Tracking and Keplerian Element Data

This shows tracking and keplerian element data for the satellite.

Feedback or suggestion? Click here.




ElementValue
Catalog48588
NameSTARLINK-2244
Epoch Orbit1249
Epoch Day215.08462232
Epoch Year2021
RAAN111.6615
Inclination53.0558
Eccentricity0.0002186
Argument of Perigee80.8795
Mean Anonmoly279.2441
Mean Motion15.06387658
Decay Rate-1.067E-05
L11 48588U 21041AM 21215.08462232 -.00001067 00000-0 -52719-4 0 9993
L22 48588 53.0558 111.6615 0002186 80.8795 279.2441 15.06387658 12490

Live tracking and technical data element details for STARLINK-2244 (NORAD 48588). STARLINK-2244 can be tracked NOW for your location showing map with azimuth and elevation plus other details from your city location.

Track the satellite on the map from your city or location and see movement details for azimuth, elevation, latitude, longitude, range, height, and movement on the map or in text.







IsCatalogInMostPopularTable: catalog: 48588, numindb: 21
Update: records affected: 1



GetName: 48588 STARLINK-2244

Hit Count: updated at: Wed, 04 Aug 2021 00:09:50 GMT